Showing default

COSMOS 2333, 24297

Orbit data source: Space-Track

COSMOS 2333, 24297 is a payload satellite owned by GRU (CIS) in LEO that was launched on Wed, 04 Sep 1996 UTC via a ZENIT-2 launch vehicle from the Tyuratam Missile And Space Complex (TTMTR). Payload-class satellites include a variety of spacecraft equipped with specific instruments for various scientific and technological missions. These include communications satellites like Starlink; space stations such as the ISS; scientific satellites like the Hubble; Earth observation satellites from companies like Planet Labs, Umbra, and HawkEye 360; GPS; miniature CubeSats for education and research; and military/defense satellites.

Loading next visibility...
Identifier
24297, 1996-051A
Orbit
LEO
Country
Flag of CISCIS
Related business
Manufacturer
Yuzhnoe
Mission
Defense Sigint
Bus & Motor
TSELINA-2, Unknown motor
Mass
3,250 kg wet, 3,250 kg dry
Launch date (UTC)
1996-09-04 (29 years ago)
Launch vehicle
ZENIT-2
Launch site
Tyuratam Missile And Space Complex (TTMTR)
Object type
Payload
Rocket body
Debris
Shape & HBR
Unknown shape, 9.5 m
Radar Cross Section
Large (>1 m²)

Expand to show TLE details & history
Last TLE update: 15 hours ago

TLE from 15 hours ago
0 COSMOS 2333
1 24297U 96051A   25309.08599428 -.00000081  00000-0 -17246-4 0  9994
2 24297  70.9019  86.8298 0025934 288.1218  71.7079 14.13780455504622
Epoch: 2025-11-05T02:03Z
TLE epoch observation values (Epoch: 2025-11-05T02:03:49.905Z)
Latitude
-0.00005°
Longitude
11.30813°
Altitude
843.019 km
Speed
7.435 km/s
True Right ascension
05h 47m 19s
True Declination
0° 00' 00"
Sunlit
Object was in full shadow at epoch
Visualization orbit readout
Latitude
Unknown
Longitude
Unknown
Altitude
Unknown
Speed
Unknown
Apparent Right ascension
Unknown
Apparent Declination
Unknown
Sunlit
N/A
Visualization observer readout
Local Sidereal Time
12:50:42
Azimuth
Unknown
Elevation
Unknown
Doppler factor
Unknown
Orbital elements
Apogee altitude
863.131 km
Perigee altitude
825.669 km
Semi-major axis
7,222.537 km
Eccentricity
0.00259
Inclination
70.9019°
RAAN
86.8298°
Arg. of periapsis
288.1218°
True anomaly
71.99035°
Mean anomaly
71.7079°
Eccentric anomaly
71.8491°
Mean motion
3.53597 °/min
Orbital period
101.81 mins
BSTAR
-0.000017246
Loading maneuver chart data...
Computing Atmospheric mass density...
Loading historical data...
Loading historical data...
Loading historical data...
Loading historical data...
Loading historical data...
Loading historical data...
Loading historical data...

Documentation

Showing up to 5 results
|